Location: Krakow
(50.0830°N, 19.9170°E)
Time: 07:39:19
(UTC+02:00)

Tiros 1 despin weight - Pass Details

Date: 17 March 2026
Orbit: 555 x 592 km, 48.2° (Epoch: 18 April)

Event Time Altitude Azimuth Distance (km) Brightness Sun altitude
Rises 05:50:33 0° 252° (WSW) 2,813 ? -0.7°
Reaches altitude 10° 05:52:51 10° 249° (WSW) 1,909 ? -0.4°
Maximum altitude 05:57:10 61° 169° (S) 662 ? 0.3°
Drops below altitude 10° 06:01:27 10° 89° (E) 1,892 ? 1.0°
Sets 06:03:44 0° 86° (E) 2,785 ? 1.4°
